Location: Newark
(16.3678°N, 77.8722°E)
Time: 23:29:16
(UTC+00:00)

S-56A Canister/Altair - Pass Details

Date: 12 December 2019
Orbit: 634 x 2498 km, 38.9° (Epoch: 22 January)

Event Time Altitude Azimuth Distance (km) Brightness Sun altitude
Rises 09:10:31 0° 309° (NW) 6,169 12.2 36.4°
Reaches altitude 10° 09:15:15 10° 317° (NW) 5,094 11.8 35.6°
Maximum altitude 09:28:14 38° 20° (NNE) 2,901 10.4 33.4°
Drops below altitude 10° 09:38:07 10° 85° (E) 3,915 10.8 31.6°
Sets 09:41:11 0° 94° (E) 4,649 11.2 31.1°
